Location: Brno
(49.2000°N, 16.6330°E)
Time: 04:56:20
(UTC+02:00)

BREEZE M DEB (TANK) - Visible Passes

Search period start: 28 May 2017 00:00
Search period end: 07 June 2017 00:00
Orbit: 305 x 11970 km, 49.5° (Epoch: 27 May)

Date Brightness Start Highest point End Pass type
(mag) Time Alt. Az. Time Alt. Az. Time Alt. Az.
28 May 6.6 01:07:33 10° WNW 01:18:09 14° W 01:24:33 10° WSW visible
29 May 6.3 00:09:45 10° NW 00:31:55 23° W 00:40:35 11° SW visible
29 May 6.0 23:12:38 10° NW 23:45:12 34° WSW 23:54:02 15° SSW visible
30 May 5.9 22:14:45 10° WNW 22:57:52 46° WSW 23:07:29 15° S visible
31 May 6.0 21:15:31 10° WNW 22:09:45 58° SW 22:20:56 12° SSE visible
01 Jun 6.1 20:14:50 10° WNW 21:20:47 70° SW 21:33:46 10° SE visible
03 Jun 6.7 00:12:18 10° WNW 00:28:45 17° W 00:37:12 10° WSW visible
03 Jun 6.4 23:14:12 10° NW 23:42:27 26° W 23:52:44 10° SSW visible
04 Jun 6.2 22:16:14 10° NW 22:55:35 37° WSW 23:06:44 10° S visible
05 Jun 6.2 21:17:24 10° WNW 22:08:00 49° WSW 22:19:58 10° S visible
